CAPE
0 8 8 0 3 0 0 36 20 80 6 43 11 85 103 120 213 266 207 751 1103 1416 1884 1739 1502 1475 1532 1624 1462 1391 1495 1203 937 1189 1082 861 767 744 590 422 298 28 5 16
1 15 0 0 17 17 69 107 43 54 107 43 23 23 5 49 124 89 5 749 1138 1535 1116 1498 1453 1512 1513 1568 1613 1651 1475 1111 1026 853 573 747 713 701 425 138 44 36 9 11
27 3 14 13 38 27 6 15 6 12 11 13 11 10 4 42 126 18 34 226 1204 1287 1509 1415 1432 1584 1496 1488 1361 1190 1093 1202 852 691 1098 803 413 236 143 25 26 19 11 0
23 31 6 22 2 0 4 9 1 3 1 0 0 0 53 45 94 23 0 5 568 1094 1509 1478 1448 1302 1471 1268 976 1018 1057 1122 1231 1253 656 516 410 114 37 93 33 29 0 0
1 4 27 24 27 1 0 0 0 0 0 0 0 0 7 1 3 0 34 0 0 134 1338 1229 1299 1309 1137 1231 1097 962 968 893 1028 1213 662 281 106 39 54 46 11 0 0 0
0 0 0 0 0 0 0 0 1 5 31 3 7 0 0 1 10 2 12 4 0 22 884 1143 1109 1003 1092 1115 921 744 803 808 698 641 280 0 0 0 0 0 0 7 11 9
0 4 8 24 6 15 14 7 26 11 29 67 154 45 0 85 0 6 86 270 212 764 880 1083 977 925 904 961 1010 927 617 505 185 36 0 0 0 0 0 0 0 0 0 1
18 28 27 1 1 65 16 12 6 20 4 5 53 71 140 79 72 60 200 1143 1095 543 1116 1068 986 916 440 760 763 674 403 61 2 0 0 0 0 20 11 0 0 0 0 0
45 13 36 21 14 9 0 0 31 3 67 179 248 242 225 81 0 0 0 271 724 322 771 875 794 564 305 119 13 22 0 0 0 0 6 8 10 0 0 0 0 0 0 0
28 2 4 17 41 58 67 82 97 248 134 41 98 102 15 0 2 0 0 36 314 1014 422 219 49 25 0 0 0 0 0 0 3 15 30 47 37 9 0 0 0 0 0 0
8 122 267 181 60 25 23 45 116 131 268 112 78 77 24 4 0 0 10 11 61 674 379 0 0 0 0 0 0 0 0 0 0 0 13 15 16 3 0 0 0 0 2 1
148 178 99 90 36 0 14 151 416 216 70 215 75 124 106 29 8 0 0 219 386 11 1 0 0 0 0 0 0 0 6 18 23 41 15 25 25 0 0 0 0 0 0 6
51 0 0 0 0 189 197 287 215 111 242 173 77 75 36 20 0 0 0 155 6 0 6 0 0 0 0 4 12 11 0 9 8 21 38 34 15 0 0 0 0 0 0 0
2 0 0 0 5 62 140 73 70 220 143 141 44 14 0 0 6 0 5 0 0 0 0 4 0 4 8 23 11 2 1 4 8 8 0 0 0 0 0 0 0 0 0 0
410 341 69 21 65 58 19 92 215 174 114 13 38 12 0 48 251 0 0 1 0 0 0 0 0 0 14 9 16 13 0 5 1 0 0 0 0 0 0 0 4 7 0 0
405 483 177 143 51 74 118 220 262 129 31 85 18 15 0 0 37 3 0 0 0 0 0 0 0 0 14 13 109 98 32 6 0 0 0 0 0 0 0 3 0 7 4 17
155 336 88 55 94 197 62 341 300 93 9 0 0 11 0 1 0 0 23 6 0 2 0 0 6 5 36 10 20 16 10 0 0 0 7 22 32 26 26 27 89 95 67 42
205 95 68 40 205 128 392 298 26 19 0 0 0 0 0 0 0 0 0 0 1 13 18 9 34 10 0 0 0 0 0 8 20 41 45 52 55 65 60 31 26 57 75 61
329 120 15 212 68 239 250 218 44 0 0 0 0 0 0 0 0 0 0 2 2 0 0 0 7 45 35 26 0 9 41 40 28 10 10 14 36 54 66 43 32 58 74 149
241 288 94 2 43 33 392 329 151 83 0 0 0 1 0 3 2 0 0 3 10 0 17 45 22 4 0 0 20 2 0 0 0 0 0 0 0 0 0 0 0 1 2 5
456 371 303 237 203 185 310 259 29 0 112 5 0 11 31 19 11 5 8 8 0 0 34 0 0 0 0 0 0 0 0 0 0 0 0 0 0 0 0 0 0 0 0 0
144 296 115 259 174 165 307 196 105 309 164 30 20 42 51 13 12 17 8 28 19 29 0 0 0 0 0 0 0 0 0 0 0 0 0 0 0 0 0 0 0 0 1 4
175 293 268 370 156 832 594 392 557 304 17 0 14 23 20 22 10 23 11 0 0 0 0 0 0 0 0 0 0 0 0 0 0 0 0 0 0 0 0 0 0 0 0 0
309 192 228 0 50 330 555 347 305 235 36 25 8 24 16 49 62 18 0 0 0 0 0 0 0 0 0 0 0 0 0 0 0 0 0 0 0 0 0 0 0 0 0 0
220 125 60 21 11 0 102 0 57 134 24 33 17 43 115 98 22 0 0 0 0 0 0 0 0 0 0 0 0 0 0 0 0 0 0 0 0 0 0 0 0 0 0 0
372 339 209 18 12 0 0 0 7 3 25 70 58 10 13 18 0 1 0 1 0 0 0 0 0 0 0 0 0 0 0 0 0 0 0 0 0 0 0 0 0 0 0 0
CIN
0 -7 -19 -1 -52 0 0 -51 -18 -12 -82 -61 -37 -9 -9 -10 -30 -1 -1 -5 -7 -7 -15 -44 -68 -67 -62 -71 -68 -48 -20 -22 -24 -6 -5 -11 -6 -4 -5 -5 -5 -6 -10 -5
-2 -9 -75 0 -14 -43 -11 -20 -7 -17 -12 -7 -26 -22 -5 -6 -16 -47 -111 -5 -10 -30 -73 -85 -68 -38 -62 -66 -38 -14 -7 -17 -5 -15 -26 -11 -6 -6 -13 -7 -45 -6 -1 -2
-16 -20 -96 -50 -20 -7 -4 -5 -3 -17 -24 -38 -3 -6 -29 -44 -16 -182 -205 -239 -16 -29 -41 -94 -55 -18 -66 -59 -41 -45 -22 -3 -11 -20 -11 -7 -15 -18 -16 -20 -11 -5 -2 0
-31 -21 -6 -18 -1 0 -5 -8 -1 -4 -2 0 -1 0 -15 -99 -96 -203 0 -232 -60 -22 -16 -43 -43 -30 -35 -64 -67 -36 -24 -8 -4 -8 -16 -16 -9 -21 -20 -35 -26 -11 -3 0
-1 -6 -8 -7 -6 -3 0 0 0 0 0 0 0 -2 -126 -15 -52 0 -259 0 0 -151 -16 -24 -31 -14 -40 -43 -39 -35 -21 -11 -5 -1 -2 -9 -10 -11 -11 -20 -15 0 0 0
0 0 0 0 0 0 0 -1 -4 -3 -18 -34 -18 0 -27 -8 -47 -74 -30 -67 0 -123 -28 -22 -24 -18 -4 -17 -28 -32 -10 -7 -4 -2 -23 0 0 0 0 0 0 -7 -11 -23
0 -18 -24 -18 -3 -8 -4 -3 -6 -5 -6 -6 -22 -57 0 -96 0 -80 -14 -108 -119 -25 -37 -10 -41 -13 -4 -22 -6 -18 -24 -12 -28 -14 0 0 0 0 0 0 0 0 0 -9
-4 -11 -16 -4 -2 -7 -15 -12 -13 -6 -3 -19 -19 -23 -4 -70 -172 -178 -68 -65 -106 -212 -3 -7 -7 -1 -2 -15 -21 -15 -34 -92 -1 0 0 0 0 -8 -11 0 0 0 0 0
-7 -23 -17 -16 -13 -28 0 -1 -10 -1 -5 -17 -5 -56 -169 -187 0 0 0 -113 -110 -143 -7 -12 -17 -2 -3 -10 -7 -104 0 0 0 -1 -3 -3 -4 0 0 0 0 0 0 0
-42 -64 -44 -72 -50 -41 -8 -45 -26 -9 -6 -20 -12 -44 -28 0 -17 0 0 -156 -172 -19 -84 -53 -11 -14 0 0 0 0 0 0 -2 -4 -3 -6 -3 -5 0 0 0 0 0 0
-80 -41 -20 -31 -58 -53 -35 -14 -7 -30 -3 -7 -9 -55 -49 -63 0 0 -50 -65 -98 -29 -39 -4 0 0 0 0 0 0 0 0 0 0 -3 -8 -10 -2 0 0 0 0 -1 -1
-31 -50 -89 -92 -96 -4 -19 -4 -4 -11 -12 -7 -17 -6 -68 -140 -151 0 0 -3 -44 -2 -4 0 0 0 0 0 0 0 -3 -3 -5 -3 -7 -9 -15 0 0 0 0 0 0 -1
-105 0 0 0 0 -8 -7 -8 -3 -5 -11 -10 -15 -7 -34 -41 0 0 0 -85 -33 0 -75 0 0 0 -1 -4 -5 -11 -2 -1 -4 -3 -6 -12 -17 0 0 0 0 0 0 0
-62 0 0 0 -76 -42 -6 -14 -3 -12 -12 -7 -24 -40 -52 -16 -90 0 -64 0 0 0 0 -99 -55 -4 -13 -6 -3 -7 -1 -3 -4 -4 0 0 0 0 0 0 0 0 0 0
-76 -62 -89 -105 -61 -44 -48 -9 -19 -10 -18 -22 -37 -48 0 -26 -2 -1 0 0 0 0 0 0 -9 -2 -37 -38 -34 -6 0 -2 -1 0 0 0 0 0 0 0 -31 -31 0 0
-23 -27 -70 -78 -76 -6 -7 -19 -18 -11 -43 -3 -29 -9 0 -3 -2 -65 0 0 0 0 0 0 0 0 -56 -52 -3 -6 -20 -20 0 0 0 0 -1 0 -1 -9 -1 -21 -19 -12
-23 -10 -70 -106 -35 -3 -6 -10 -15 -37 -44 0 0 -1 -1 -1 0 0 -6 -31 0 -36 -19 0 -101 -76 -58 -24 -45 -45 -45 0 0 -1 -6 -3 -3 -5 -9 -9 -5 -3 -7 -13
-57 -75 -49 -73 -12 -2 -7 -52 -82 -51 0 0 0 0 0 0 0 0 0 0 -13 -29 -47 -22 -21 -25 0 0 0 0 0 -2 -3 -2 -2 -3 -6 -5 -4 -3 -11 -13 -10 -22
-71 -65 -73 -4 -7 -3 -17 -49 -75 0 0 0 0 0 0 0 0 0 0 -17 -2 0 0 0 -7 -29 -68 -69 -3 -19 -11 -34 -57 -80 -81 -63 -55 -75 -54 -57 -53 -36 -29 -15
-24 -44 -35 -5 -7 -7 -4 -7 -8 -15 0 0 0 -2 -1 -25 -2 -2 -1 -1 -2 0 -9 -30 -60 -112 0 0 -79 -103 0 0 0 0 0 0 0 0 0 0 0 -4 -36 -47
-15 -18 -11 -17 -4 -2 -13 -17 -39 0 -6 -19 0 -1 -39 -5 -18 -12 -4 -3 0 0 -94 0 0 0 0 0 0 0 0 0 0 0 0 0 0 0 0 0 0 0 0 0
-4 -3 -2 0 -2 -4 -8 -4 -4 -6 -23 -19 -3 -2 -39 -6 -3 -6 -11 -18 -30 -22 0 0 0 0 0 0 0 0 0 0 0 0 0 0 0 0 0 0 0 0 -2 -1
-11 -9 -2 -23 -24 -4 -12 -8 -12 -11 -17 0 -3 -2 -4 -2 -10 -33 -53 0 0 0 0 0 0 0 0 0 0 0 0 0 0 0 0 0 0 0 0 0 0 0 -1 0
-15 -85 -45 0 -90 -41 -27 -56 -28 -12 -2 -6 -6 -7 -5 -12 -13 -49 0 0 0 0 0 0 0 0 0 0 0 0 0 0 0 0 0 0 0 0 0 0 0 0 0 0
-83 -78 -95 -134 -34 0 -78 0 -39 -16 -10 -4 -4 -8 -19 -27 -31 -15 0 0 0 0 0 0 0 0 0 0 0 0 0 0 0 0 0 0 0 0 0 0 0 0 0 0
-4 -10 -17 -45 -53 0 0 0 -36 -22 -12 -20 -42 -52 -90 -81 -15 -42 0 -1 -1 0 0 0 0 0 0 0 0 0 0 0 0 0 0 0 0 0 0 0 0 0 0 0
Wind_Speed
23 22 13 27 6 9 7 12 30 5 8 5 4 9 20 10 7 6 17 5 6 2 7 9 10 10 11 14 14 13 12 10 10 9 9 9 9 10 11 13 12 12 13 12
22 22 25 24 8 12 13 18 31 34 30 19 13 7 9 17 12 15 16 7 4 5 5 7 8 9 11 13 13 12 12 10 10 9 10 11 10 11 12 12 13 12 17 17
21 13 15 17 16 15 17 21 18 24 30 28 11 11 20 35 22 20 28 38 0 3 5 6 7 8 10 12 11 12 12 12 13 13 13 13 14 13 13 13 12 14 16 20
21 19 5 13 23 18 21 28 30 27 28 27 12 22 19 26 26 23 19 26 24 8 8 7 7 7 10 11 11 11 12 13 14 13 13 13 13 13 12 12 13 13 17 17
19 23 24 22 21 29 31 30 32 32 23 21 21 11 14 38 21 12 6 4 6 35 14 9 9 9 9 10 11 11 12 13 13 14 15 13 15 12 13 14 15 15 13 14
27 25 24 20 19 7 16 21 28 18 25 29 15 16 28 23 30 26 6 5 5 38 13 10 10 9 10 11 10 11 11 12 13 14 15 16 16 17 18 19 18 19 16 13
11 19 15 18 27 25 23 32 31 26 18 29 30 15 17 23 7 7 20 4 8 5 10 8 8 6 7 9 10 10 11 12 13 14 15 16 16 17 16 17 20 20 19 18
29 23 20 26 34 10 27 20 14 38 40 21 9 20 26 22 23 27 32 13 7 11 8 7 8 7 9 9 11 12 12 13 13 13 14 16 17 14 18 18 20 18 19 21
26 25 30 14 19 32 29 22 28 12 21 38 24 33 27 31 27 28 31 26 1 7 7 7 10 8 10 11 11 12 13 13 12 12 13 14 16 19 21 21 19 19 20 21
22 29 31 34 33 23 16 24 21 26 34 33 11 18 29 29 33 35 32 32 24 6 7 13 10 11 9 11 12 13 12 12 12 12 13 13 15 17 19 20 19 19 19 20
23 24 30 30 30 36 36 28 28 21 20 26 25 22 31 30 30 30 35 45 41 8 11 9 7 10 9 11 12 13 13 13 13 12 12 13 16 19 21 22 20 19 19 19
21 22 28 36 37 16 13 24 29 32 37 18 33 29 28 27 24 28 22 37 20 14 13 5 7 10 9 8 10 11 13 14 14 14 15 14 17 19 21 21 18 18 19 20
24 22 32 30 28 24 25 26 24 33 29 23 17 23 27 22 30 33 35 28 18 20 26 21 7 8 8 9 10 11 13 13 16 16 15 15 16 17 18 17 18 17 18 19
19 21 20 20 30 32 29 31 29 28 31 30 24 25 35 34 32 30 27 23 16 16 13 14 14 7 9 12 12 12 13 14 16 16 18 18 19 17 16 16 17 17 17 18
19 22 25 25 29 33 24 25 26 27 27 25 28 30 31 30 27 23 21 17 15 15 15 9 14 18 19 11 11 10 13 15 18 18 18 15 13 12 12 13 14 15 16 16
15 23 26 29 27 14 24 21 23 23 20 28 19 20 23 25 24 21 19 16 14 15 12 4 15 9 16 10 11 15 18 18 18 16 14 12 12 12 12 12 11 11 12 14
19 23 27 27 30 31 26 19 20 21 22 25 22 19 18 22 23 17 16 16 17 16 13 11 14 11 8 12 17 17 16 16 14 13 12 13 15 15 17 17 17 17 18 17
20 23 25 24 23 20 19 15 17 17 17 19 19 19 16 15 17 15 15 13 13 13 12 12 11 12 14 16 18 17 16 14 12 14 17 19 20 22 19 17 18 20 21 21
15 20 22 23 22 21 13 13 13 15 14 14 15 16 16 14 13 12 11 12 17 17 17 16 16 17 19 22 22 22 23 23 23 23 24 24 27 28 28 28 29 27 26 26
13 16 16 21 19 21 18 10 10 10 14 10 11 13 12 12 18 14 14 15 16 18 17 17 17 18 21 23 23 22 23 24 24 27 28 28 28 28 27 28 29 26 28 29
12 13 8 8 11 16 12 13 11 14 20 8 8 8 8 7 11 14 14 16 17 17 16 17 18 20 21 22 21 22 24 25 26 27 29 30 29 29 28 31 31 29 29 30
17 16 15 16 12 20 13 13 11 16 12 9 7 9 11 9 9 12 14 16 16 17 18 18 19 19 21 23 23 24 26 27 29 28 30 31 30 29 31 32 28 28 25 26
15 21 20 22 21 18 19 19 15 12 9 9 11 10 7 7 9 9 11 14 15 15 16 17 18 19 22 24 25 27 29 31 32 30 32 32 32 33 34 31 31 28 28 29
22 23 24 25 31 31 28 31 25 9 10 9 10 12 9 7 7 9 12 11 13 14 16 18 19 21 24 25 27 28 30 32 34 35 35 34 34 36 34 32 29 31 32 31
30 19 12 19 23 27 31 32 32 18 11 11 14 15 11 8 9 10 13 14 14 15 18 20 22 24 25 26 28 29 31 33 35 36 37 36 37 35 34 33 31 31 30 28
20 24 20 25 31 24 24 21 12 28 13 14 12 13 14 10 13 12 14 15 17 19 21 23 24 26 27 28 29 30 32 34 36 37 37 37 36 35 35 34 32 32 29 28
Wind_Direction
207 205 315 272 202 207 170 213 242 268 359 343 327 344 338 337 333 358 331 0 2 6 71 59 22 20 27 25 29 29 25 33 36 44 45 36 32 31 26 19 28 21 22 28
204 222 276 239 137 204 206 230 271 290 275 330 338 297 331 337 319 316 317 267 335 77 65 41 40 44 22 23 33 38 38 36 35 47 30 29 36 29 28 40 29 32 14 12
216 194 201 212 226 227 230 245 242 249 273 262 256 301 323 314 319 323 321 299 271 137 97 51 65 41 38 27 38 38 40 17 9 21 21 22 24 25 25 30 34 25 16 6
230 243 127 187 255 230 248 277 280 261 268 262 279 263 332 344 333 323 322 309 270 163 123 88 61 55 35 39 42 29 29 11 9 11 12 18 12 15 34 36 35 30 13 13
218 264 259 237 240 295 278 272 272 269 258 260 257 309 327 317 326 327 330 251 253 244 125 95 79 77 58 54 36 29 24 14 19 7 6 16 13 32 36 36 19 14 19 19
243 244 246 229 233 220 348 284 266 252 264 318 329 324 327 338 322 288 6 348 154 215 93 90 80 67 54 53 34 26 20 19 21 16 12 4 4 3 3 356 3 4 11 21
195 223 222 283 294 324 339 311 313 290 265 316 340 348 325 346 71 234 3 98 160 122 92 86 84 77 82 67 44 58 46 28 25 24 19 9 2 358 1 356 354 351 356 3
267 312 343 321 272 348 332 343 328 282 294 262 320 344 345 341 338 340 331 18 58 359 67 69 88 85 86 72 71 75 61 47 32 24 22 15 8 9 4 358 350 351 349 349
326 303 293 340 336 315 327 337 332 280 274 292 294 314 338 334 336 343 301 308 193 133 116 106 100 97 72 62 45 68 41 41 42 33 23 15 7 356 351 351 352 352 351 348
325 309 300 288 306 330 336 337 338 333 320 317 330 327 326 331 337 342 299 266 250 120 105 123 94 75 44 48 34 42 47 52 44 26 23 21 14 3 356 351 349 348 350 350
329 326 308 311 320 310 309 323 332 339 339 334 336 338 330 326 318 332 316 294 252 142 116 102 81 67 56 48 41 39 46 44 40 28 21 13 6 356 354 349 347 347 347 347
340 333 322 303 286 331 339 332 328 319 316 333 332 339 347 345 348 344 338 339 339 322 343 54 77 70 63 63 58 69 51 39 51 41 28 17 7 3 357 355 355 352 347 345
329 331 319 325 328 1 332 329 334 321 328 330 329 339 351 1 347 337 325 335 341 302 332 303 74 76 58 51 40 51 46 43 30 29 28 24 16 8 6 5 1 356 351 349
336 332 332 332 314 316 325 324 330 332 325 328 333 333 323 333 335 337 350 1 2 4 26 299 296 2 358 12 4 32 39 31 31 23 13 6 4 9 14 13 9 3 359 355
334 330 326 325 319 310 326 330 333 331 333 332 334 333 333 340 353 360 6 13 29 24 55 343 309 310 296 74 68 48 36 30 20 18 16 21 27 25 21 15 12 6 359 354
342 326 326 321 327 329 328 338 339 340 345 334 353 350 351 351 359 358 3 15 13 2 38 0 317 137 248 128 61 30 23 25 22 32 33 33 28 21 14 8 4 359 353 354
323 320 322 323 319 311 321 337 343 342 340 340 346 355 4 4 10 21 24 40 54 62 85 97 104 156 137 44 18 21 27 31 41 39 31 24 14 9 3 1 358 357 356 351
320 316 317 325 331 325 335 350 354 355 356 354 1 7 17 31 39 67 69 59 55 75 111 128 105 57 39 33 25 29 30 39 38 28 15 8 5 359 0 356 352 351 348 347
339 326 323 327 329 335 358 357 359 359 356 1 9 12 19 34 44 57 88 70 34 29 26 30 39 22 7 354 351 353 359 9 9 3 359 357 354 351 352 351 349 349 348 346
334 338 331 326 330 332 343 7 10 11 346 8 15 13 17 30 3 27 50 44 28 13 7 9 8 1 353 351 354 358 360 359 357 351 348 347 347 347 346 346 344 345 345 344
319 332 337 326 321 328 352 354 0 338 339 22 14 12 15 21 19 23 27 21 11 13 9 6 2 357 358 357 0 357 355 354 351 347 345 344 345 345 344 341 340 339 339 337
312 319 324 325 322 322 347 345 329 341 5 8 11 5 27 41 32 25 16 9 358 356 357 359 359 1 360 357 355 353 351 351 348 349 344 343 344 344 342 339 339 338 337 338
312 317 313 323 331 332 331 322 337 343 353 356 350 0 17 14 11 13 11 359 354 358 359 359 359 358 356 353 350 346 345 343 343 345 342 340 341 341 339 338 337 337 339 336
321 321 324 319 320 311 314 302 308 323 336 351 344 341 342 0 3 1 349 357 352 349 348 348 350 347 345 346 346 344 342 341 339 338 338 338 338 336 337 338 339 338 335 335
307 328 329 326 329 308 314 313 295 302 339 341 339 339 345 352 350 354 337 327 332 340 337 337 340 340 341 342 341 342 341 340 338 337 335 335 336 337 335 335 338 338 335 335
320 322 323 327 336 337 329 310 238 248 334 336 341 343 340 343 336 338 337 331 327 328 332 331 333 334 336 338 339 341 341 339 337 335 335 335 335 337 336 335 335 337 333 332